Hourly Weather Bolshie Kaskevichi

Today, 1 August, Sunday

Time Temperature Precipitation Wind Pressure Humidity
00:00 +19°C° 0.3 mm 2 mps 739 mmHg 78%
01:00 +18°C° 0.3 mm 2 mps 739 mmHg 84%
02:00 +18°C° 0.3 mm 3 mps 738 mmHg 90%
03:00 +18°C° 0.2 mm 3 mps 738 mmHg 92%
04:00 +17°C° 0.2 mm 3 mps 738 mmHg 93%
05:00 +17°C° 0.2 mm 3 mps 738 mmHg 94%
06:00 +19°C° 0.1 mm 3 mps 738 mmHg 90%
07:00 +20°C° 0.1 mm 4 mps 738 mmHg 86%
08:00 +21°C° 0.1 mm 5 mps 738 mmHg 82%
09:00 +22°C° 0.2 mm 5 mps 739 mmHg 74%
10:00 +25°C° 0.2 mm 5 mps 739 mmHg 67%
11:00 +26°C° 0.2 mm 5 mps 739 mmHg 59%
12:00 +27°C° 0 mm 5 mps 739 mmHg 52%
13:00 +28°C° 0 mm 5 mps 739 mmHg 45%
14:00 +29°C° 0 mm 4 mps 739 mmHg 37%
15:00 +29°C° 0 mm 4 mps 739 mmHg 39%
16:00 +28°C° 0 mm 4 mps 739 mmHg 40%
17:00 +28°C° 0 mm 3 mps 739 mmHg 42%
18:00 +26°C° 0 mm 3 mps 739 mmHg 48%
19:00 +24°C° 0 mm 2 mps 738 mmHg 55%
20:00 +22°C° 0 mm 1 mps 738 mmHg 61%
21:00 +22°C° 0 mm 1 mps 738 mmHg 61%
22:00 +20°C° 0 mm 2 mps 738 mmHg 62%
23:00 +20°C° 0 mm 2 mps 738 mmHg 63%

Tomorrow, 2 August, Monday

Time Temperature Precipitation Wind Pressure Humidity
00:00 +19°C° 0 mm 2 mps 738 mmHg 65%
01:00 +19°C° 0 mm 2 mps 738 mmHg 68%
02:00 +18°C° 0 mm 2 mps 737 mmHg 70%
03:00 +18°C° 0.4 mm 2 mps 737 mmHg 77%
04:00 +18°C° 0.4 mm 2 mps 737 mmHg 84%
05:00 +18°C° 0.4 mm 1 mps 736 mmHg 91%
06:00 +18°C° 0.4 mm 2 mps 736 mmHg 92%
07:00 +18°C° 0.4 mm 2 mps 736 mmHg 92%
08:00 +19°C° 0.4 mm 3 mps 735 mmHg 92%
09:00 +20°C° 0.2 mm 3 mps 735 mmHg 86%
10:00 +22°C° 0.2 mm 4 mps 735 mmHg 81%
11:00 +23°C° 0.2 mm 4 mps 735 mmHg 75%
12:00 +25°C° 0.6 mm 4 mps 735 mmHg 74%
13:00 +25°C° 0.6 mm 4 mps 734 mmHg 73%
14:00 +26°C° 0.6 mm 5 mps 734 mmHg 72%
15:00 +25°C° 1 mm 5 mps 734 mmHg 77%
16:00 +23°C° 1 mm 6 mps 734 mmHg 81%
17:00 +22°C° 1 mm 6 mps 734 mmHg 85%
18:00 +20°C° 0.1 mm 6 mps 734 mmHg 88%
19:00 +17°C° 0.1 mm 6 mps 735 mmHg 90%
20:00 +16°C° 0.1 mm 6 mps 736 mmHg 93%
21:00 +15°C° 0 mm 6 mps 736 mmHg 93%
22:00 +15°C° 0 mm 5 mps 737 mmHg 93%
23:00 +15°C° 0 mm 4 mps 737 mmHg 93%

Day after tomorrow, 3 August, Tuesday

Time Temperature Precipitation Wind Pressure Humidity
00:00 +15°C° 0 mm 4 mps 737 mmHg 93%
01:00 +14°C° 0 mm 4 mps 738 mmHg 93%
02:00 +14°C° 0 mm 4 mps 738 mmHg 93%
03:00 +14°C° 0 mm 4 mps 738 mmHg 92%
04:00 +14°C° 0 mm 4 mps 739 mmHg 92%
05:00 +14°C° 0 mm 4 mps 739 mmHg 92%
06:00 +15°C° 0 mm 4 mps 739 mmHg 84%
07:00 +17°C° 0 mm 4 mps 740 mmHg 77%
08:00 +17°C° 0 mm 5 mps 740 mmHg 69%
09:00 +19°C° 0 mm 5 mps 740 mmHg 62%
10:00 +20°C° 0 mm 5 mps 741 mmHg 56%
11:00 +22°C° 0 mm 5 mps 741 mmHg 49%
12:00 +22°C° 0 mm 5 mps 741 mmHg 47%
13:00 +23°C° 0 mm 6 mps 741 mmHg 45%
14:00 +23°C° 0 mm 6 mps 741 mmHg 44%
15:00 +22°C° 0 mm 5 mps 741 mmHg 46%
16:00 +22°C° 0 mm 5 mps 741 mmHg 49%
17:00 +21°C° 0 mm 4 mps 741 mmHg 52%
18:00 +20°C° 0 mm 4 mps 741 mmHg 59%
19:00 +18°C° 0 mm 3 mps 742 mmHg 66%
20:00 +17°C° 0 mm 3 mps 742 mmHg 73%
21:00 +16°C° 0 mm 3 mps 742 mmHg 77%
22:00 +14°C° 0 mm 3 mps 742 mmHg 82%
23:00 +13°C° 0 mm 3 mps 743 mmHg 86%

4 August, Wednesday

Time Temperature Precipitation Wind Pressure Humidity
00:00 +14°C° 0 mm 2 mps 743 mmHg 88%
01:00 +14°C° 0 mm 2 mps 743 mmHg 90%
02:00 +13°C° 0 mm 2 mps 743 mmHg 92%
03:00 +13°C° 0 mm 2 mps 744 mmHg 93%
04:00 +13°C° 0 mm 2 mps 744 mmHg 93%
05:00 +13°C° 0 mm 2 mps 744 mmHg 94%
06:00 +15°C° 0 mm 2 mps 744 mmHg 87%
07:00 +16°C° 0 mm 2 mps 745 mmHg 80%
08:00 +18°C° 0 mm 2 mps 745 mmHg 73%
09:00 +19°C° 0.1 mm 2 mps 745 mmHg 68%
10:00 +21°C° 0.1 mm 2 mps 745 mmHg 63%
11:00 +23°C° 0.1 mm 2 mps 745 mmHg 58%
12:00 +24°C° 0.3 mm 2 mps 745 mmHg 55%
13:00 +24°C° 0.3 mm 2 mps 745 mmHg 53%
14:00 +24°C° 0.3 mm 2 mps 745 mmHg 51%
15:00 +24°C° 0 mm 2 mps 745 mmHg 53%
16:00 +24°C° 0 mm 1 mps 745 mmHg 55%
17:00 +23°C° 0 mm 1 mps 745 mmHg 57%
18:00 +22°C° 0 mm 1 mps 745 mmHg 59%
19:00 +21°C° 0 mm 1 mps 745 mmHg 62%
20:00 +20°C° 0 mm 1 mps 745 mmHg 65%
21:00 +19°C° 0 mm 1 mps 745 mmHg 67%
22:00 +19°C° 0 mm 1 mps 745 mmHg 70%
23:00 +17°C° 0 mm 2 mps 745 mmHg 72%

5 August, Thursday

Time Temperature Precipitation Wind Pressure Humidity
00:00 +17°C° 0 mm 2 mps 745 mmHg 71%
01:00 +17°C° 0 mm 2 mps 744 mmHg 71%
02:00 +17°C° 0 mm 2 mps 744 mmHg 70%
03:00 +16°C° 0.4 mm 2 mps 744 mmHg 78%
04:00 +16°C° 0.4 mm 2 mps 744 mmHg 85%
05:00 +15°C° 0.4 mm 2 mps 743 mmHg 93%
06:00 +14°C° 0.3 mm 3 mps 743 mmHg 92%
07:00 +16°C° 0.3 mm 3 mps 743 mmHg 92%
08:00 +15°C° 0.3 mm 4 mps 743 mmHg 91%
09:00 +18°C° 0.1 mm 4 mps 742 mmHg 85%
10:00 +19°C° 0.1 mm 4 mps 742 mmHg 78%
11:00 +21°C° 0.1 mm 4 mps 742 mmHg 71%
12:00 +22°C° 0 mm 4 mps 741 mmHg 69%
13:00 +22°C° 0 mm 4 mps 741 mmHg 67%
14:00 +23°C° 0 mm 4 mps 741 mmHg 65%
15:00 +23°C° 0.4 mm 4 mps 740 mmHg 68%
16:00 +24°C° 0.4 mm 3 mps 740 mmHg 72%
17:00 +24°C° 0.4 mm 3 mps 739 mmHg 75%
18:00 +21°C° 0.9 mm 3 mps 739 mmHg 82%
19:00 +20°C° 0.9 mm 3 mps 739 mmHg 89%
20:00 +19°C° 0.9 mm 4 mps 738 mmHg 96%
21:00 +18°C° 0.1 mm 4 mps 738 mmHg 96%
22:00 +18°C° 0.1 mm 4 mps 738 mmHg 96%
23:00 +18°C° 0.1 mm 4 mps 738 mmHg 97%

6 August, Friday

Time Temperature Precipitation Wind Pressure Humidity
00:00 +18°C° 0.4 mm 3 mps 737 mmHg 97%
01:00 +18°C° 0.4 mm 3 mps 737 mmHg 97%
02:00 +18°C° 0.4 mm 3 mps 736 mmHg 96%
03:00 +18°C° 0.8 mm 4 mps 736 mmHg 97%
04:00 +18°C° 0.8 mm 4 mps 735 mmHg 97%
05:00 +17°C° 0.8 mm 5 mps 735 mmHg 97%
06:00 +19°C° 1 mm 6 mps 734 mmHg 95%
07:00 +19°C° 1 mm 6 mps 734 mmHg 94%
08:00 +20°C° 1 mm 6 mps 734 mmHg 92%
09:00 +20°C° 0.4 mm 6 mps 734 mmHg 91%
10:00 +20°C° 0.4 mm 7 mps 735 mmHg 90%
11:00 +20°C° 0.4 mm 7 mps 735 mmHg 89%
12:00 +20°C° 0.1 mm 6 mps 735 mmHg 85%
13:00 +20°C° 0.1 mm 5 mps 736 mmHg 81%
14:00 +20°C° 0.1 mm 4 mps 736 mmHg 76%
15:00 +20°C° 0 mm 4 mps 737 mmHg 73%
16:00 +21°C° 0 mm 4 mps 737 mmHg 69%
17:00 +21°C° 0 mm 4 mps 737 mmHg 66%
18:00 +20°C° 0 mm 3 mps 737 mmHg 71%
19:00 +19°C° 0 mm 3 mps 737 mmHg 75%
20:00 +17°C° 0 mm 3 mps 737 mmHg 80%
21:00 +17°C° 0 mm 3 mps 737 mmHg 82%
22:00 +16°C° 0 mm 3 mps 738 mmHg 84%
23:00 +14°C° 0 mm 3 mps 738 mmHg 86%
Show more

We Need Your Consent

Meteoprog and our Service Providers may store and access personal data such as cookies, device identifiers or other similar technologies on your device and process such data to personalise content and ads, as well as provide social media features and to analyse the traffic.

  • Store and/or access information on your device

    Cookies, device identifiers or other information can be stored or accessed on your device for the purposes indicated above.

  • Personalised ads and content, ad and content measurement, audience insights, and products development

    Ads and content can be personalised based on a profile. More data can be added to better personalise ads and content. Ad and content performance can be measured. Insights about the audience who saw the ads and content can be derived. Such data can be used to develop or improve user’s experience, systems and software.

By clicking ‘I Agree’ you will allow the use of indicated cookies, device identifiers, web beacons or other similar technologies. Your settings can be changed in the browser on your device.

For certain purposes, legitimate interests may be relied on, rather than consent. You can read more about this in our Privacy and Cookie Policy.